TimeEST,TemperatureF,Dew PointF,Humidity,Sea Level PressureIn,VisibilityMPH,Wind Direction,Wind SpeedMPH,Gust SpeedMPH,PrecipitationIn,Events,Conditions,WindDirDegrees,DateUTC
12:53 AM,39.9,30.9,70,30.20,10.0,South,6.9,-,N/A,,Overcast,180,2013-01-09 05:53:00
1:53 AM,43.0,32.0,65,30.20,9.0,SSW,6.9,-,0.00,Rain,Light Rain,210,2013-01-09 06:53:00
2:53 AM,43.0,32.0,65,30.21,10.0,SW,8.1,-,0.00,,Overcast,220,2013-01-09 07:53:00
3:53 AM,44.1,33.1,65,30.22,10.0,SW,5.8,-,N/A,,Overcast,220,2013-01-09 08:53:00
4:53 AM,46.0,35.1,66,30.24,10.0,WSW,13.8,25.3,0.00,Rain,Light Rain,250,2013-01-09 09:53:00
5:02 AM,44.6,35.6,71,30.23,8.0,West,12.7,26.5,0.00,Rain,Light Rain,260,2013-01-09 10:02:00
5:30 AM,42.8,37.4,81,30.23,9.0,West,12.7,20.7,0.00,Rain,Light Rain,260,2013-01-09 10:30:00
5:53 AM,42.1,37.9,85,30.26,10.0,WSW,9.2,-,0.00,Rain,Light Rain,250,2013-01-09 10:53:00
6:53 AM,41.0,39.0,93,30.28,4.0,WSW,8.1,-,0.00,Rain,Rain,250,2013-01-09 11:53:00
7:19 AM,39.2,37.4,93,30.28,2.5,WSW,9.2,-,N/A,Rain,Rain,240,2013-01-09 12:19:00
7:28 AM,39.2,37.4,93,30.28,3.0,SW,10.4,-,N/A,Rain,Rain,230,2013-01-09 12:28:00
7:41 AM,41.0,39.2,93,30.29,3.0,WSW,8.1,-,N/A,Rain,Light Rain,250,2013-01-09 12:41:00
7:53 AM,39.9,39.0,97,30.30,5.0,WSW,8.1,-,N/A,Rain,Light Rain,240,2013-01-09 12:53:00
8:15 AM,41.0,39.2,93,30.30,5.0,WSW,9.2,-,N/A,,Overcast,240,2013-01-09 13:15:00
8:53 AM,42.1,39.9,92,30.33,4.0,WSW,8.1,-,N/A,,Overcast,240,2013-01-09 13:53:00
9:53 AM,42.1,39.9,92,30.36,5.0,West,5.8,-,N/A,,Clear,270,2013-01-09 14:53:00
10:53 AM,45.0,39.9,82,30.37,10.0,WSW,8.1,-,N/A,,Clear,250,2013-01-09 15:53:00
11:53 AM,46.0,39.0,76,30.37,10.0,WSW,8.1,-,N/A,,Clear,240,2013-01-09 16:53:00
1:53 PM,48.9,37.0,64,30.36,10.0,WNW,6.9,-,N/A,,Clear,290,2013-01-09 18:53:00
2:53 PM,50.0,37.0,61,30.36,10.0,WSW,4.6,-,N/A,,Clear,240,2013-01-09 19:53:00
3:53 PM,51.1,36.0,56,30.38,10.0,West,8.1,-,N/A,,Clear,260,2013-01-09 20:53:00
4:53 PM,50.0,30.9,48,30.40,10.0,Calm,Calm,-,N/A,,Clear,0,2013-01-09 21:53:00
5:53 PM,44.1,32.0,63,30.43,10.0,Calm,Calm,-,N/A,,Clear,0,2013-01-09 22:53:00
6:53 PM,37.0,32.0,82,30.46,10.0,Calm,Calm,-,N/A,,Clear,0,2013-01-09 23:53:00
7:53 PM,33.1,30.0,89,30.47,10.0,Calm,Calm,-,N/A,,Clear,0,2013-01-10 00:53:00
8:53 PM,33.1,30.0,89,30.49,10.0,Calm,Calm,-,N/A,,Clear,0,2013-01-10 01:53:00
9:53 PM,32.0,30.0,92,30.51,10.0,Calm,Calm,-,N/A,,Clear,0,2013-01-10 02:53:00
10:53 PM,32.0,28.9,88,30.49,7.0,Calm,Calm,-,N/A,,Clear,0,2013-01-10 03:53:00
11:53 PM,30.9,28.9,92,30.51,7.0,Calm,Calm,-,N/A,,Clear,0,2013-01-10 04:53:00